GW5625 Weather Reports


time (UTC)temp
F
wind
direction
speed
knots
gust
knots
rain 1hr
in
rain 24hr
in
rain mn
in
humidity
%
barometer
mb
20260507051555 55 254 2.6 7.0 0.00 0.00 0.00 90 1013.9
20260507050058 55 236 0.0 5.2 0.00 0.00 0.00 90 1013.8
20260507044559 56 227 0.9 4.3 0.00 0.00 0.00 88 1013.7
20260507043024 56 261 0.9 4.3 0.00 0.00 0.00 88 1013.8
20260507041549 57 242 0.9 3.5 0.00 0.00 0.00 87 1013.7
20260507040033 57 240 2.6 6.1 0.00 0.00 0.00 86 1013.6
20260507034602 58 202 0.0 3.5 0.00 0.00 0.00 86 1013.5
20260507033031 58 228 0.9 3.5 0.00 0.00 0.00 84 1013.4
20260507031553 60 252 0.9 3.5 0.00 0.00 0.00 80 1013.3
20260507030004 61 165 0.0 2.6 0.00 0.00 0.00 80 1013.2
20260507024535 61 233 0.9 3.5 0.00 0.00 0.00 81 1013.1
20260507023041 60 249 1.7 6.1 0.00 0.00 0.00 82 1012.9
20260507021559 60 203 1.7 9.6 0.00 0.00 0.00 83 1012.9
20260507020034 60 246 3.5 7.0 0.00 0.00 0.00 83 1012.9
20260507014600 61 199 2.6 8.7 0.00 0.00 0.00 81 1012.9
20260507013030 62 197 0.9 6.1 0.00 0.00 0.00 80 1012.8
20260507011555 63 248 2.6 8.7 0.00 0.00 0.00 80 1012.8
20260507010056 63 225 2.6 7.8 0.00 0.00 0.00 80 1012.9
20260507004522 63 234 4.3 9.6 0.00 0.00 0.00 80 1012.9
20260507003044 64 225 1.7 7.8 0.00 0.00 0.00 78 1013.0
20260507001550 66 234 3.5 8.7 0.00 0.00 0.00 76 1013.1
20260507000037 67 228 2.6 7.0 0.00 0.00 0.00 76 1013.1
20260506234502 66 238 2.6 7.0 0.00 0.00 0.00 77 1013.3
20260506233028 66 227 2.6 7.0 0.00 0.00 0.00 76 1013.2
20260506231555 66 235 2.6 7.8 0.00 0.00 0.00 75 1013.3
20260506230037 67 192 3.5 8.7 0.00 0.00 0.00 75 1013.4
20260506224504 66 211 2.6 8.7 0.00 0.00 0.00 75 1013.5
20260506223027 66 224 2.6 8.7 0.00 0.00 0.00 75 1013.7
20260506221555 66 155 3.5 9.6 0.00 0.00 0.00 75 1013.9
20260506220004 67 145 3.5 8.7 0.00 0.00 0.00 75 1014.2
20260506214532 67 203 4.3 8.7 0.00 0.00 0.00 73 1014.4
20260506213054 67 234 3.5 10.4 0.00 0.00 0.00 74 1014.5
20260506211512 68 165 3.5 7.0 0.00 0.00 0.00 73 1014.5
20260506210039 68 181 2.6 7.8 0.00 0.00 0.00 73 1014.4
20260506204504 68 205 2.6 8.7 0.00 0.00 0.00 73 1014.6
20260506203030 68 237 2.6 6.1 0.00 0.00 0.00 72 1014.7
20260506201556 68 173 2.6 7.0 0.00 0.00 0.00 72 1014.9
20260506200037 68 168 2.6 7.0 0.00 0.00 0.00 72 1015.0
20260506194505 68 186 2.6 7.0 0.00 0.00 0.00 72 1015.0
20260506193028 68 159 2.6 6.1 0.00 0.00 0.00 73 1015.1
20260506191552 67 171 3.5 6.1 0.00 0.00 0.00 74 1015.4
20260506190042 68 168 1.7 4.3 0.00 0.00 0.00 72 1015.6
20260506184505 67 163 0.0 1.7 0.00 0.00 0.00 72 1015.6
20260506183028 66 164 0.9 4.3 0.00 0.00 0.00 73 1015.6
20260506181558 65 176 0.0 2.6 0.00 0.00 0.00 74 1015.7
20260506180051 65 178 0.0 3.5 0.00 0.00 0.00 73 1015.6
20260506174516 65 177 0.9 2.6 0.00 0.00 0.00 74 1015.6
20260506173045 64 174 0.9 2.6 0.00 0.00 0.00 75 1015.7
20260506171554 64 177 0.9 3.5 0.00 0.00 0.00 75 1015.7
20260506170048 62 169 0.0 1.7 0.00 0.00 0.00 77 1015.7
20260506164514 62 169 0.9 3.5 0.00 0.00 0.00 76 1015.6
20260506163036 62 155 0.0 1.7 0.00 0.00 0.00 79 1015.6
20260506161605 61 155 0.0 1.7 0.00 0.00 0.00 81 1015.7
20260506160045 60 153 0.0 2.6 0.00 0.00 0.00 83 1015.5
20260506154506 58 149 0.0 1.7 0.00 0.00 0.00 86 1015.6
20260506153028 58 125 0.0 2.6 0.00 0.00 0.00 87 1015.5
20260506151604 57 121 0.0 2.6 0.00 0.00 0.00 87 1015.5
20260506150039 57 17 0.0 0.0 0.00 0.00 0.00 87 1015.4
20260506144505 57 14 0.0 2.6 0.00 0.00 0.00 88 1015.4
20260506143041 56 336 1.7 2.6 0.00 0.00 0.00 89 1015.3
20260506141552 56 277 0.0 0.0 0.00 0.00 0.00 89 1015.1
20260506140007 55 277 0.0 0.0 0.00 0.00 0.00 89 1015.0
20260506134528 55 277 0.0 0.0 0.00 0.00 0.00 89 1014.8
20260506133053 55 277 0.0 0.0 0.00 0.00 0.00 89 1014.8
20260506131525 55 277 0.0 0.0 0.00 0.00 0.00 88 1014.8
20260506130058 55 277 0.0 0.9 0.00 0.00 0.00 88 1014.7
20260506124503 55 277 0.0 0.0 0.00 0.00 0.00 88 1014.5
20260506123028 55 277 0.0 0.0 0.00 0.00 0.00 87 1014.4
20260506121552 55 277 0.0 0.0 0.00 0.00 0.00 87 1014.4
20260506120048 55 277 0.0 0.9 0.00 0.00 0.00 87 1014.3
20260506114519 55 277 0.0 2.6 0.00 0.00 0.00 86 1014.2
20260506113029 55 257 0.0 1.7 0.00 0.00 0.00 87 1014.0
20260506111553 55 289 0.0 1.7 0.00 0.00 0.00 86 1014.0
20260506110036 55 346 0.0 1.7 0.00 0.00 0.00 86 1014.0
20260506104616 55 350 0.0 0.9 0.00 0.00 0.00 87 1013.9
20260506103025 55 350 0.0 0.0 0.00 0.00 0.00 87 1013.9
20260506101556 55 350 0.0 0.0 0.00 0.00 0.00 87 1013.9
20260506100035 55 350 0.0 0.0 0.00 0.01 0.00 87 1013.8
20260506094605 55 350 0.0 0.9 0.00 0.01 0.00 87 1013.9
20260506094507 55 350 0.0 0.9 0.00 0.01 0.00 86 1013.9
20260506093027 55 350 0.0 0.9 0.00 0.01 0.00 86 1013.9
20260506091552 55 350 0.0 2.6 0.00 0.01 0.00 86 1013.8
20260506084528 55 346 0.0 4.3 0.00 0.03 0.00 85 1013.8
20260506083047 55 176 0.9 2.6 0.00 0.03 0.00 85 1013.7
20260506081508 55 177 0.9 3.5 0.00 0.03 0.00 85 1014.0
20260506073027 55 194 0.0 1.7 0.00 0.09 0.03 85 1013.5
20260506071607 55 215 0.0 1.7 0.00 0.09 0.03 85 1013.4
20260506061552 55 244 0.9 3.5 0.00 0.11 0.03 85 1013.1